Dewpoint
24 23 23 23 23 23 24 25 25 25 25 25 25 24 24 25 24 25 25 25 25 26 26 25 25 24 24 23 22 21 20 20 20 20 19 18 17 18 19 20 20 20 20 20 20 20 20 19 20 20 21 20 21 21 22 22 22 22 22 20 20 18 15 10 3 6 17 18 19 18 16 15 14 14 13 13 13 13 14 14 15 15 15 15 16
25 24 23 22 22 22 23 24 24 24 24 24 24 24 24 23 23 23 24 24 25 25 25 25 25 24 24 23 22 21 20 20 20 19 19 18 17 18 19 20 19 19 20 20 19 20 19 19 20 21 21 21 21 21 21 21 21 20 20 20 19 20 19 11 10 8 10 14 15 14 14 14 12 13 12 12 13 14 14 15 15 15 15 15 15
26 26 25 23 22 22 22 22 23 23 24 24 24 24 23 23 23 22 23 23 24 24 25 25 25 24 24 23 22 21 20 19 19 19 18 17 16 18 19 20 19 19 20 20 20 19 19 19 20 21 21 21 21 21 21 21 20 20 19 19 18 18 18 16 13 14 11 12 12 12 12 13 11 11 12 13 12 13 14 14 15 17 17 16 16
26 27 26 25 24 23 22 21 21 22 23 23 23 23 23 23 23 22 22 22 23 24 24 24 24 24 24 23 22 21 20 19 19 18 18 17 15 16 17 18 18 18 19 19 19 19 19 19 20 21 21 21 21 21 21 20 20 19 19 19 18 18 18 18 15 13 14 12 10 9 12 10 10 12 13 13 12 13 13 15 16 17 16 18 16
26 26 27 26 25 25 24 23 21 21 21 22 22 23 23 23 23 22 21 21 22 22 23 24 24 24 24 23 23 21 20 19 18 18 17 17 15 15 16 17 17 17 18 18 21 19 19 19 20 21 21 20 20 20 20 20 20 19 19 19 18 18 18 17 17 15 13 12 11 11 11 10 11 11 12 12 13 13 14 14 15 15 15 16 18
26 26 26 26 26 25 25 24 23 22 21 21 21 21 22 23 22 22 22 21 21 21 22 23 23 23 23 23 23 22 21 20 19 18 17 17 15 14 15 16 16 16 16 17 19 19 19 18 20 20 21 20 20 20 20 19 19 19 18 18 17 17 16 16 15 14 13 12 10 8 9 10 9 10 12 12 13 12 12 14 15 15 15 14 15
26 26 26 26 26 26 25 25 24 24 23 21 21 20 21 23 23 23 22 21 21 21 21 22 23 23 23 23 23 22 21 20 19 18 18 17 15 14 14 15 15 15 15 15 17 18 18 18 19 20 20 20 20 20 19 19 19 18 18 17 16 15 15 14 13 13 12 10 8 7 7 8 9 8 10 13 13 13 13 13 12 14 15 14 15
26 25 25 25 26 26 25 25 25 25 25 24 23 22 21 22 23 24 24 22 21 21 21 21 22 23 23 23 22 22 21 21 20 19 18 17 16 15 14 15 14 14 14 15 16 17 17 17 18 20 20 20 19 19 19 18 18 17 17 15 15 14 14 13 12 11 10 8 8 7 8 9 9 10 13 14 14 14 15 15 13 12 13 15 14
25 25 24 25 25 26 25 25 25 26 26 26 26 25 24 23 23 24 24 24 23 22 22 21 22 22 22 22 22 22 21 21 20 19 18 18 17 17 16 16 15 15 14 15 16 17 17 17 17 19 20 22 23 22 22 21 18 17 16 15 15 14 14 13 12 11 10 10 9 9 9 10 10 10 11 12 12 12 13 13 12 13 14 15 15
25 24 23 24 25 25 25 25 25 26 26 26 26 26 26 25 25 25 25 25 25 24 23 23 22 22 22 22 22 22 21 21 24 27 26 20 18 18 20 18 17 14 15 15 15 16 17 17 18 22 23 24 24 24 24 24 22 18 15 15 15 14 13 12 11 11 12 11 11 11 11 12 11 11 12 13 13 13 13 12 12 13 14 14 15
24 23 23 24 25 25 25 24 24 25 26 26 28 28 27 28 28 27 27 27 26 25 24 23 23 22 23 22 22 22 21 22 27 28 28 28 21 19 21 20 19 16 15 15 16 17 17 17 17 22 23 24 24 25 26 25 24 22 22 21 19 14 12 11 11 12 11 12 12 13 12 12 12 12 13 13 13 12 12 13 14 14 14 15 14
23 22 22 24 25 25 24 24 24 25 26 27 27 27 28 28 28 28 28 27 26 26 25 23 23 23 22 22 22 22 22 25 28 29 29 29 27 22 22 21 21 17 15 15 15 16 16 16 17 20 21 21 21 22 24 25 24 23 23 22 22 20 19 14 11 11 12 12 13 14 14 13 13 14 14 13 12 13 15 15 15 16 15 16 15
21 21 22 24 25 25 24 24 24 25 25 26 26 26 26 26 27 27 27 27 27 26 25 25 23 23 22 22 23 22 22 27 28 29 30 30 29 25 21 22 21 19 16 16 15 15 16 16 16 18 19 24 23 21 22 22 24 24 24 23 22 22 21 20 20 15 14 13 13 15 13 13 14 14 14 12 14 15 16 16 17 17 16 16 15
20 20 22 24 25 25 24 25 24 24 25 26 25 25 25 25 25 26 27 27 27 26 26 25 25 24 23 22 22 23 22 27 29 29 30 30 30 29 23 22 21 20 17 15 15 15 16 16 16 17 19 21 20 20 21 21 21 20 20 19 18 20 22 21 20 20 17 14 14 15 14 15 15 15 15 15 16 16 18 18 18 18 17 15 14
19 19 21 23 24 24 24 23 23 23 25 25 25 25 25 25 25 25 26 26 26 26 25 26 26 26 26 25 24 24 22 27 29 30 30 31 31 30 24 22 21 21 17 15 15 15 16 16 16 17 18 20 19 20 20 20 21 20 20 19 19 18 17 16 16 16 16 14 15 15 16 17 16 15 14 15 17 19 19 19 18 16 14 11 9
17 18 20 22 22 22 21 21 21 23 25 25 25 25 25 25 25 25 24 25 25 25 25 26 26 26 26 26 24 24 23 27 29 30 30 31 31 29 25 23 22 21 20 16 14 14 15 15 15 17 19 19 22 25 23 20 21 20 19 19 18 18 18 20 22 21 20 19 19 19 18 17 17 16 17 17 19 21 20 17 14 11 9 6 4
16 16 18 19 19 18 17 17 19 23 25 25 25 24 25 25 24 24 24 24 24 24 25 25 25 26 26 26 25 24 25 26 28 29 30 31 31 29 27 23 21 21 20 18 15 14 15 15 15 16 18 18 23 26 26 24 20 19 18 18 18 18 19 20 24 25 25 25 24 22 22 21 22 23 24 25 22 20 15 12 9 7 4 2 3
14 16 16 18 16 15 15 17 19 23 25 25 24 24 24 24 24 23 23 23 23 24 24 24 25 25 25 25 25 25 25 26 28 29 30 31 31 29 27 24 21 20 20 18 15 15 15 20 18 16 17 17 25 26 27 23 19 19 18 18 18 18 19 20 20 21 25 25 24 22 20 21 24 25 24 22 21 18 12 9 8 6 3 3 2
14 14 15 14 14 14 14 16 20 24 24 24 23 23 23 23 23 23 22 23 23 23 23 23 23 24 25 25 26 25 25 26 27 28 30 31 31 29 27 23 21 20 19 18 18 16 15 20 21 19 18 20 26 27 27 23 19 19 19 17 17 17 18 17 18 19 20 19 17 18 21 22 19 14 15 17 16 14 9 8 8 5 2 3 4
12 13 13 12 13 13 13 15 18 22 22 22 22 22 22 21 22 23 23 22 22 22 22 22 23 23 24 24 24 25 25 25 25 27 29 31 31 30 27 23 21 20 19 17 16 17 17 18 20 23 24 24 27 28 27 26 19 19 18 17 16 16 17 17 17 18 18 18 19 18 16 11 10 8 7 6 5 8 5 4 6 7 5 5 5
12 12 11 11 11 11 11 12 15 19 20 19 19 19 20 20 21 22 22 22 21 20 21 21 21 21 22 23 23 24 24 24 24 27 29 31 31 31 26 24 22 20 18 17 16 16 16 16 17 23 25 25 27 27 28 27 22 18 17 17 16 18 20 16 17 19 17 18 18 16 14 11 10 10 7 5 5 4 6 9 7 7 7 6 5
10 11 10 9 9 9 10 11 14 16 16 16 16 16 17 19 20 20 20 20 20 20 20 20 19 20 20 21 21 21 23 24 23 25 27 30 31 32 27 24 22 20 17 17 17 16 16 16 17 21 25 25 26 28 28 27 24 16 16 21 21 22 17 17 18 18 16 16 14 13 11 9 7 7 6 6 5 6 5 5 7 6 5 8 6
9 8 8 8 7 8 8 10 12 13 12 12 12 12 14 16 18 20 20 20 20 20 20 19 19 18 19 18 19 20 20 21 25 23 26 28 31 31 30 26 25 20 18 17 16 16 16 17 18 23 25 26 26 28 29 28 25 18 22 22 22 23 20 16 17 17 15 14 13 11 10 8 7 5 5 4 5 5 4 4 4 3 3 3 4
7 7 6 6 6 6 7 9 10 9 9 9 9 10 11 14 16 18 19 19 18 19 19 19 18 18 18 18 17 17 19 19 23 25 25 27 30 31 31 28 27 21 19 17 17 16 17 17 19 24 26 26 27 28 29 27 22 22 23 24 23 23 18 15 15 14 13 11 11 10 9 6 5 4 4 5 5 4 3 2 2 2 3 5 4
5 4 4 4 4 4 5 5 5 5 5 6 6 7 10 13 14 16 18 18 18 18 18 18 18 17 17 17 17 16 17 18 19 22 25 26 28 30 31 29 28 25 19 18 17 17 19 21 22 24 27 27 27 28 28 28 25 23 23 24 23 20 16 14 13 12 12 11 11 9 8 5 3 2 2 3 3 2 5 5 5 5 5 6 6
2 2 2 2 2 3 2 2 2 3 3 4 5 6 8 10 12 15 16 17 17 17 17 17 17 17 17 17 17 16 16 16 18 19 22 25 26 29 31 30 28 26 22 19 21 21 22 23 24 25 27 27 25 24 24 25 26 24 23 24 20 17 16 13 12 12 12 11 9 7 4 3 2 1 2 1 2 3 4 3 3 2 3 2 2
1 0 -0 -1 -0 0 -0 -0 -0 1 2 3 4 6 8 10 13 15 16 17 17 17 17 17 17 17 17 17 17 17 16 16 16 17 19 21 24 27 30 29 28 27 22 20 21 21 21 22 22 25 25 27 26 25 25 25 26 24 21 22 17 15 14 13 12 12 10 9 6 4 3 3 3 3 3 3 3 3 4 2 2 2 2 2 2
-2 -2 -2 -2 -2 -2 -2 -0 -0 -1 0 2 2 4 6 9 11 13 15 16 16 17 17 17 17 17 17 17 17 16 16 15 15 16 17 19 21 24 28 27 26 25 21 19 20 20 21 23 23 23 24 24 24 23 23 23 22 22 20 15 14 12 13 16 15 12 9 7 4 3 3 4 2 2 2 2 2 2 3 2 2 1 2 2 2
-4 -5 -4 -4 -5 -3 -3 -3 -2 -1 -0 1 3 5 6 8 10 13 16 17 17 17 17 18 18 18 18 18 17 16 16 15 16 20 18 21 21 22 26 26 25 24 22 22 19 20 20 20 19 21 22 21 20 20 19 16 12 11 11 11 12 11 11 11 9 7 3 2 1 2 2 -0 -1 1 0 -0 0 2 3 2 3 2 2 2 1
-7 -7 -6 -6 -5 -5 -4 -3 -2 -1 -0 2 4 4 9 15 14 14 16 20 22 23 23 19 19 19 19 19 19 18 17 17 20 22 23 23 24 25 27 28 28 24 24 25 21 18 18 18 18 19 19 19 17 16 14 11 9 8 9 11 8 8 8 6 4 2 2 1 1 0 -1 -0 -1 -1 -1 -0 -1 0 1 5 2 2 1 -0 0
-7 -7 -7 -7 -5 -5 -5 -4 -4 -4 -3 -2 -1 1 2 5 14 17 18 18 19 22 24 25 25 25 22 19 20 23 23 22 22 23 24 25 25 26 28 29 28 27 26 22 19 17 17 17 17 17 17 16 14 13 12 9 9 9 8 8 6 6 6 4 2 1 2 1 -1 -1 -1 -1 -1 -0 -1 -1 -1 -0 0 1 1 0 -0 -0 -0
-8 -8 -7 -7 -6 -6 -6 -5 -5 -5 -4 -3 -2 -2 -1 1 5 13 17 19 20 21 23 24 25 26 26 25 22 19 22 24 23 23 24 25 26 26 27 29 29 28 27 25 17 16 16 16 16 15 14 14 13 12 12 11 10 9 7 6 4 4 4 3 3 2 1 1 0 -0 -0 0 -0 -1 -1 -0 0 -0 -0 -0 -1 -1 -0 0 0
-7 -7 -7 -7 -7 -7 -6 -6 -6 -6 -5 -4 -3 -1 -0 2 3 6 11 16 19 21 22 23 25 26 26 26 27 25 22 23 24 24 24 25 26 26 27 29 29 28 27 21 16 16 16 15 14 14 13 12 12 11 11 10 9 7 7 6 5 3 3 3 4 2 1 1 1 0 0 0 -0 -0 0 0 0 -1 -1 -1 -1 -1 -0 -0 -0
-7 -7 -8 -7 -7 -7 -6 -6 -6 -5 -5 -5 -4 -2 2 4 3 4 5 7 12 16 19 20 23 25 26 26 26 27 26 25 24 24 24 25 26 26 27 27 30 28 26 19 17 16 15 14 14 13 12 12 11 10 10 9 7 6 5 5 4 3 3 4 3 1 1 4 2 1 1 0 0 -0 -1 -1 -1 -1 -1 -1 -1 -1 -2 -1 -1
-7 -6 -5 -5 -6 -6 -6 -6 -6 -5 -6 -4 -2 -2 -2 -1 1 1 1 1 1 5 11 15 19 21 21 23 26 26 27 27 25 25 25 25 26 26 27 25 26 25 24 19 17 15 14 13 12 12 11 11 10 9 9 8 7 5 5 4 3 3 3 4 2 2 2 3 1 1 0 -0 -0 -1 -1 -1 -1 -2 -2 -2 -2 -2 -2 -1 -1
-6 -6 -6 -5 -6 -6 -6 -5 -5 -4 -5 -5 -5 -5 -4 -3 -3 -2 -1 0 2 6 11 14 16 18 21 22 24 26 26 27 26 25 25 25 26 26 24 23 23 23 21 18 16 15 14 13 12 11 11 10 9 8 8 7 6 5 5 4 2 3 3 3 2 2 2 1 0 0 1 -1 -1 -1 -1 -2 -2 -2 -2 -2 -2 -1 -1 -1 -1
-7 -7 -6 -6 -5 -5 -4 -3 -4 -4 -0 -3 -3 -3 -2 -1 0 1 3 5 7 9 13 14 16 17 19 20 21 24 26 26 26 25 25 25 26 25 23 22 22 22 20 17 15 13 12 12 11 10 10 9 8 7 7 6 5 5 7 3 3 3 2 2 1 1 0 -0 0 1 1 -1 -1 -2 -3 -3 -2 -2 -2 -2 -2 -1 -1 0 1
-7 -7 -7 -6 -6 -5 -5 -5 -5 -2 -2 -2 -1 -1 -2 -3 -3 -0 3 7 9 12 14 14 16 15 15 16 20 21 23 25 26 26 25 25 23 23 23 23 22 21 19 15 13 12 12 11 10 10 9 8 7 6 5 5 4 3 3 3 3 2 5 4 5 2 0 0 -0 -0 -1 -2 -3 -3 -3 -3 -3 -2 -2 -2 -2 -2 -1 -0 1
-7 -5 -5 -5 -1 -6 -5 -5 -5 -5 -5 -4 -4 -4 -3 -3 -2 -2 -1 -0 4 11 14 14 14 14 15 16 17 20 21 22 22 22 21 21 22 22 22 22 22 21 17 13 12 11 11 9 8 8 7 7 6 5 4 3 3 3 2 2 1 3 5 2 2 -0 -0 -1 -1 -2 -3 -4 -4 -5 -4 -4 -3 -3 -3 -3 -2 -2 -1 -0 1
-7 -7 -6 -4 -5 -6 -6 -6 -6 -6 -5 -6 -5 -4 -4 -2 -0 2 4 5 6 10 13 14 14 14 15 16 17 18 19 20 20 21 20 20 21 21 22 22 22 17 13 12 11 10 9 7 7 6 6 5 5 4 3 2 2 2 1 1 1 3 2 1 0 -1 -1 -2 -4 -5 -5 -5 -5 -6 -5 -4 -4 -4 -3 -3 -1 -0 0 1 1
-7 -7 -5 -4 -5 -6 -5 -6 -6 -6 -5 -5 -4 -3 -3 -1 0 2 5 7 9 11 13 13 13 14 15 16 19 19 19 19 20 20 19 19 19 20 21 22 18 14 12 11 10 8 7 6 5 5 5 4 4 3 2 2 2 1 0 0 1 1 0 -1 -1 -2 -4 -5 -5 -6 -6 -6 -6 -6 -5 -5 1 0 -1 -0 0 1 1 1 1
-6 -6 -6 -6 -5 -5 -5 -5 -5 -4 -4 -3 -3 -3 -1 -1 0 3 8 10 10 11 12 13 13 14 16 18 19 20 19 19 19 19 18 18 18 20 20 17 14 12 11 9 8 6 5 5 4 4 3 3 2 1 1 1 1 0 -0 -1 -1 -1 -2 -3 -4 -5 -5 -6 -6 -7 -7 -7 -6 -5 -4 3 -1 -1 -1 -1 -1 -1 0 1 2
-5 -6 -6 -5 -4 -4 -4 -4 -4 -5 -4 -4 -3 -1 0 2 2 3 6 9 12 12 12 12 12 13 14 17 18 19 18 19 15 18 18 17 15 12 11 11 10 9 9 8 6 5 5 4 3 3 2 2 1 1 0 0 0 -1 -1 -2 -3 -3 -3 -4 -5 -6 -6 -7 -7 -7 -7 -5 -2 -2 -3 -3 -3 -3 -3 -3 -2 -0 0 1 1
-5 -5 -5 -4 -4 -4 -3 -3 -3 -2 -2 -1 -1 0 1 3 3 4 6 9 11 11 12 12 12 13 14 15 16 17 17 18 16 14 12 10 9 8 7 7 7 6 6 5 5 4 4 3 2 1 1 1 1 1 1 0 -0 -1 -2 -4 -4 -5 -5 -6 -6 -7 -7 -7 -8 -7 -6 -5 -4 -4 -4 -3 -4 -4 -3 -2 -1 -0 1 1 2
-5 -5 -5 -5 -4 -4 -3 -2 -1 -1 0 1 0 1 4 5 6 7 8 8 10 11 11 12 12 13 13 14 14 11 11 11 9 8 8 7 5 5 5 5 5 4 3 3 3 3 2 1 -0 -1 -2 -2 -1 -1 -2 -2 -2 -2 -3 -4 -5 -6 -6 -6 -6 -7 -7 -8 -7 -7 -6 -5 -6 -5 -5 -4 -3 -3 -2 -1 -0 1 1 2 1
-6 -5 -5 -4 -4 -3 -2 -1 1 2 2 2 3 4 5 7 8 8 9 9 10 11 11 10 10 10 9 7 6 6 7 6 6 4 3 3 3 3 3 3 2 2 2 2 2 1 0 -0 -1 -3 -4 -5 -5 -5 -6 -6 -6 -5 -5 -4 -4 -5 -6 -7 -9 -9 -10 -9 -8 -8 -7 -7 -7 -5 -4 -4 -4 -2 -2 -1 0 1 1 1 0
-6 -5 -4 -4 -3 -2 -2 -0 1 2 3 5 6 7 8 8 8 8 7 7 7 5 5 5 4 4 3 3 3 2 2 2 2 2 2 1 1 1 1 0 -0 0 -0 -0 -1 -2 -2 -3 -5 -6 -7 -8 -9 -9 -9 -10 -10 -10 -10 -10 -10 -10 -11 -10 -9 -10 -10 -11 -10 -10 -9 -7 -7 -5 -4 -3 -2 -2 -1 -0 1 1 1 0 -1
-5 -5 -4 -3 -3 -3 -2 -1 -1 0 1 2 2 2 3 3 3 3 3 3 3 2 1 0 0 -0 -0 -0 -0 -1 -1 -1 -1 -2 -1 -1 -1 -1 -1 -2 -2 -2 -3 -3 -4 -4 -5 -5 -6 -8 -9 -10 -11 -12 -12 -12 -12 -12 -13 -13 -13 -13 -11 -10 -13 -13 -13 -13 -12 -12 -11 -9 -8 -7 -6 -5 -5 -2 -1 0 2 2 0 -1 -1
-5 -5 -5 -4 -3 -3 -2 -2 -1 -1 -1 -0 -1 -0 0 0 0 0 0 -0 -0 -1 -1 -2 -2 -2 -3 -3 -3 -3 -3 -3 -3 -3 -3 -3 -3 -3 -3 -5 -6 -4 -6 -7 -7 -7 -7 -7 -8 -9 -9 -10 -12 -13 -14 -14 -14 -14 -14 -14 -11 -9 -9 -10 -12 -15 -12 -13 -13 -11 -11 -10 -9 -8 -5 -4 -2 -0 1 3 2 1 -1 -1 -1
-7 -6 -6 -5 -4 -4 -3 -3 -3 -2 -2 -2 -2 -2 -2 -2 -2 -2 -2 -2 -3 -3 -3 -4 -4 -4 -4 -4 -4 -5 -5 -6 -6 -5 -5 -6 -7 -7 -7 -8 -8 -10 -11 -12 -12 -12 -12 -12 -12 -12 -12 -13 -13 -14 -15 -15 -15 -15 -16 -15 -7 -6 -7 -7 -9 -9 -10 -13 -12 -10 -9 -7 -6 -5 -3 -1 0 2 4 2 1 -0 -1 -1 -1
-7 -7 -7 -6 -6 -5 -5 -4 -4 -4 -3 -3 -3 -3 -3 -3 -4 -4 -4 -4 -4 -4 -5 -5 -4 -4 -5 -4 -5 -5 -7 -8 -8 -7 -8 -8 -7 -8 -10 -12 -13 -13 -14 -15 -15 -15 -15 -15 -16 -16 -16 -16 -16 -16 -16 -16 -16 -16 -13 -9 -6 -5 -5 -5 -7 -5 -5 -7 -9 -6 -4 -2 -1 -1 0 2 3 4 2 1 -0 -1 -1 -1 -1